Regional Weather Roundup
Issued by NWS

Home | Current Version | Previous Version | Text Only | Print | Product List | Glossary On
Versions: 1 2 3 4 5 6 7 8 9 10 11 12 13 14 15 16 17 18 19 20 21 22 23 24 25 26 27 28 29 30 31 32 33 34 35 36 37 38 39 40 41 42 43 44 45 46 47 48 49 50
000
ASUS45 KABQ 180510
RWRNM
NEW MEXICO REGIONAL WEATHER ROUNDUP
NATIONAL WEATHER SERVICE ALBUQUERQUE NM
1000 PM MST SAT FEB 17 2018

NOTE: "FAIR" MEANS FEW OR NO CLOUDS BELOW 12,000 FEET AGL WITH NO
       SIGNIFICANT WEATHER OR OBSTRUCTIONS TO VISION.

      THIS PRODUCT IS RELEASED AS TWO VERSIONS.  ONE VERSION NEAR
      THE TOP OF THE HOUR CONTAINING PRELIMINARY DATA FROM ALBUQUERQUE
      AND OTHER STATIONS.  A FINAL VERSION WITH ADDITIONAL DATA IS
      ISSUED ABOUT 10 MINUTES AFTER THE HOUR.

NMZ501-503-504-510>518-180600-
NORTHWEST PLATEAU/NORTHCENTRAL MOUNTAINS

CITY           SKY/WX    TMP DP  RH WIND       PRES   REMARKS
FARMINGTON     FAIR      32  10  40 E9        30.10F WCI  24
LOS ALAMOS     FAIR      41  12  30 SW6       30.16F
SANTA FE       FAIR      40  20  44 CALM      30.14F
TAOS           FAIR      30  21  69 SE3       30.17F
ANGEL FIRE     FAIR      33  18  54 SW9G16    30.16F WCI  25

$$
NMZ402-403-502-505>509-180600-
WESTCENTRAL MOUNTAINS/SOUTHWEST MOUNTAINS

CITY           SKY/WX    TMP DP  RH WIND       PRES   REMARKS
GALLUP         FAIR      35  26  69 S3        30.15F
GRANTS         FAIR      38  21  51 CALM      30.16F
SILVER CITY    MOCLDY    41  39  94 N6        30.17F

$$
NMZ407-409-411-412-180600-
SOUTHERN DESERTS

CITY           SKY/WX    TMP DP  RH WIND       PRES   REMARKS
DEMING         FAIR      49  46  90 CALM      30.14F
LAS CRUCES     FAIR      50  46  84 S6        30.16F
ALAMOGORDO     FAIR      43  39  87 S7        30.16F
T OR C         FAIR      49  43  80 CALM      30.14F

$$
NMZ519>523-180600-
CENTRAL VALLEYS/CENTRAL HIGHLANDS

CITY           SKY/WX    TMP DP  RH WIND       PRES   REMARKS
ALBUQUERQUE    FAIR      43  27  53 SE5       30.15S
DOUBLE EAGLE   CLEAR     36  25  64 S5        30.16  WCI  32
MORIARTY ARPT  FAIR      30  24  80 CALM      30.16F
CLINES CORNERS FAIR      34  23  64 SW14      30.17F WCI  25
BELEN          FAIR      41  33  73 S6        30.14F
SOCORRO        FAIR      43  37  81 S7        30.14F

$$
NMZ524>526-539-540-180600-
SOUTHCENTRAL MOUNTAINS

CITY           SKY/WX    TMP DP  RH WIND       PRES   REMARKS
RUIDOSO        NOT AVBL

$$
NMZ527>531-180600-
NORTHEAST HIGHLANDS/NORTHEAST PLAINS

CITY           SKY/WX    TMP DP  RH WIND       PRES   REMARKS
LAS VEGAS      FAIR      35  18  49 S15       30.10F WCI  25
RATON          FAIR      36  18  48 S10       30.06F WCI  28
CLAYTON        FAIR      36  15  42 SW10      30.06F WCI  28

$$
NMZ532>537-180600-
EASTCENTRAL PLAINS

CITY           SKY/WX    TMP DP  RH WIND       PRES   REMARKS
SANTA ROSA     FAIR      38  30  73 SW3       30.13F
TUCUMCARI      FAIR      42  27  55 SW8       30.09F
CANNON AFB     FAIR      36  36 100 SE6       30.16F WCI  31
CLOVIS AIRPORT NOT AVBL

$$
NMZ028-029-538-180600-
SOUTHEAST PLAINS

CITY           SKY/WX    TMP DP  RH WIND       PRES   REMARKS
ROSWELL        FAIR      46  39  76 SE5       30.13S
ARTESIA        FAIR      50  41  71 SE12      30.15S
CARLSBAD       FAIR      49  41  74 CALM      30.15R
HOBBS          FAIR      43  27  52 SE6       30.17F


$$




USA.gov is the U.S. government's official web portal to all federal, state and local government web resources and services.